www.pogodaiklimat.ru

Погода и климат >> Архив погоды >> Мадагаскар >> Мурундава


ПОГОДА в Мурундаве

  • Прогноз погоды в Мурундаве
  • Монитор погоды в Мурундаве

АРХИВ ПОГОДЫ в Мурундаве

Время (UTC), дата Ветер
(напр.,м/с)
 
Видим.   Явления Облачность Т
(С)
Тd
(С)
f
(%)
Тe
(С)
Тes
(С)
Комфортность P
(гПа)
Po
(гПа)
Тmin
(С)
Tmax
(С)
R
(мм)
R24
(мм)
S
(см)
03 13.06 В 3 25 км ясно +17.5 1019.0 1018.1
06 13.06 В 3 40 км ясно +24.0 1020.6 1019.7
09 13.06 З 5 40 км ясно +30.0 1019.7 1018.8
12 13.06 З 5 40 км ясно +31.8 1018.1 1017.2
15 13.06 ЮЗ 5 25 км ясно +25.0 1018.7 1017.8
03 14.06 В 3 25 км ясно +16.0 1018.8 1017.9
06 14.06 ЮВ 4 40 км ясно +21.0 1020.4 1019.5
09 14.06 СВ 4 40 км ясно +29.0 1019.3 1018.4
12 14.06 З 5 40 км ясно +27.0 1017.0 1016.1
15 14.06 ЮЗ 6 25 км ясно +25.0 1017.2 1016.3
00 15.06 0 20 км ясно +17.5 1017.4 1016.5
03 15.06 В 3 25 км ясно +16.5 1017.9 1017.0
06 15.06 В 4 40 км ясно +23.0 1019.3 1018.4
09 15.06 В 4 40 км ясно +29.5 1018.3 1017.4
12 15.06 З 6 40 км ясно +28.0 1016.5 1015.6
15 15.06 ЮЗ 4 25 км ясно +25.0 1016.9 1001.0
00 16.06 0 20 км ясно +18.0 1018.0 1017.1
03 16.06 В 3 25 км ясно +17.0 1018.4 1017.5
06 16.06 В 4 40 км ясно +25.0 1020.5 1019.6
09 16.06 СВ 4 40 км ясно +31.0 1019.8 1018.9
12 16.06 З 5 40 км 1/1 600 м
[Cu med, cong]
+29.5 1017.6 1016.7
15 16.06 ЮЗ 3 25 км 1/1 600 м
[Cu med, cong]
+25.0 1018.5 1017.6
03 17.06 В 3 25 км ясно +16.5 1020.3 1019.4
06 17.06 В 4 40 км ясно +23.0 1021.7 1020.8
09 17.06 В 4 40 км ясно +30.0 1021.2 1020.3
12 17.06 З 6 40 км ясно +29.0 1019.0 1018.1
15 17.06 ЮЗ 4 25 км ясно +25.0 1019.2 1018.3
00 18.06 0 20 км 1/0 1000 м
[Ac trans]
+17.0 1019.1 1018.2
03 18.06 В 3 25 км 1/0 1000 м
[Ac trans]
+26.7 1019.5 1018.6
06 18.06 ЮВ 5 40 км 1/0 1000 м
[Ac trans]
+22.9 1020.6 1019.7
09 18.06 С 6 40 км ясно +30.2 1019.8 1018.9
12 18.06 З 7 40 км ясно +29.3 1018.4 1017.5
00 19.06 0 20 км 1/0 1000 м
[Ac trans]
+15.0 1017.8 1016.9
03 19.06 штиль 0 25 км 1/0 1000 м
[Ac trans]
+14.6 1018.4 1017.5
06 19.06 ЮВ 3 40 км ясно +22.4 1019.4 1018.4
12 19.06 Ю 8 40 км 3/1 600 м
[Cu med, cong Ac trans]
+27.1 1016.5 1015.6

 

Местоположение метеостанции Мурундава (Мадагаскар): широта -20.28 долгота 44.32 высота над уровнем моря 8 м.

В архиве по умолчанию представлена погода в Мурундаве за последнюю неделю. Архивные данные за месяц целиком и за предыдущие месяцы, начиная с января 2011 года, Вы можете получить, выбрав интересующий диапазон дат из раскрывающегося списка и нажав кнопку "Ввод!".


*Определитесь, кто Вы:
робот инопланетянин человек

Внимание! Время в таблицах - всемирное. Для получения местного времени необходимо прибавить поправку, которая равна 3 ч.

Смотрите также архив погоды в соседних городах и на ближайших метеорологических станциях:

Погода в Моромбе (Мадагаскар) (191 км)
Погода в Мэнтирано (Мадагаскар) (250 км)
Погода в Анцирабе (Мадагаскар) (292 км)
Погода в Фианаранцуа (Мадагаскар) (317 км)
Погода в Тулиаре (Мадагаскар) (350 км)
Погода в Антананариву (Мадагаскар) (368 км)
Погода в Антананариву аэропорт (Мадагаскар) (370 км)
Погода в Бесалампи (Мадагаскар) (393 км)
Погода на Острове Жуан-ди-Нова (Реюньон) (403 км)
Погода в Манандзари (Мадагаскар) (446 км)

Пояснения к столбцам:

Ветер - указаны скорость ветра в м/с - средняя за 10 мин, порывы в срок и между сроками (в фигурных скобках) и направление, откуда дует ветер: С - северный, СВ - северо-восточный, В - восточный, ЮВ - юго-восточный, Ю - южный, ЮЗ - юго-западный, З - западный, СЗ - северо-западный.
Видимость - горизонтальная дальность видимости в метрах или километрах. При видимости от 1 до 10 км при отсутствии осадков обычно наблюдается дымка, при ухудшении видимости до 1 км и менее - туман. В сухую погоду видимость может ухудшаться дымом, пылью или мглою.
Явления - указаны атмосферные явления, наблюдавшиеся в срок или в последний час перед сроком; фигурными скобками обозначены явления, наблюдавшиеся между сроками (за 1-3 часа до срока); квадратными скобками обозначены град или гололедные отложения с указанием их диаметра в мм.
Облачность - указаны через наклонную черту общая и нижняя облачность в баллах и высота нижней границы облаков в метрах; квадратными скобками обозначены формы облаков: Ci - перистые, Cs - перисто-слоистые, Cc - перисто-кучевые, Ac - высококучевые, As - высокослоистые, Sc - слоисто-кучевые, Ns - слоисто-дождевые, Cu - кучевые, Cb - кучево-дождевые. Подробнее классификацию облаков см. в Атласе облаков (PDF).
T - Температура воздуха - температура, измеренная на высоте 2 м над землей.
Td - Температура точки росы - температура, при понижении до которой содержащийся в воздухе водяной пар достигнет насыщения.
f - Относительная влажность воздуха - влажноcть воздуха, измеренная на высоте 2 м над землей.
Te - Эффективная температура - температура, которую ощущает одетый по сезону человек в тени. Характеристика душности погоды. При расчете учитывается влияние влажности воздуха и скорости ветра на теплоощущения человека.
Tes - Эффективная температура на солнце - температура, которую ощущает человек, с поправкой на солнечный нагрев. Характеристика знойности погоды. Зависит от высоты солнца над горизонтом, облачности и скорости ветра. Ночью, в пасмурную погоду, а также при ветре 12 м/с и более поправка равна нулю.
P - Атмосферное давление - приведенное к уровню моря атмосферное давление.
Po - Атмосферное давление - измеренное на уровне метеостанции атмосферное давление.
Tmin - Минимальная температура - минимум температуры воздуха на высоте 2 м над землей.
Tmax - Максимальная температура - максимум температуры воздуха на высоте 2 м над землей.
R - Количество осадков - Количество выпавших осадков за период времени, мм. При наведении курсора мыши на число - период времени, за который выпало указанное количество осадков.
R24 - Количество осадков - Количество выпавших осадков за 24 часа, мм.
S - Снежный покров - Высота снежного покрова, см. При наведении курсора мыши на число - состояние снежного покрова и степень покрытия местности в баллах.